WetterOnline ( https://www.wetteronline.de )

Wetter aktuell Hinterzarten

Aktuelles Wetter: Feldberg/Schwarzwald (1493m)

6-stündlich | Neueste Meldungen
Ortszeit Temperatur Wetter
Di, 25.01. 7:00 5.2° C wolkenlos
Di, 25.01. 1:00 7.3° C wolkenlos
Mo, 24.01. 19:00 6.1° C wolkenlos
Mo, 24.01. 13:00 3.7° C wolkenlos
Mo, 24.01. 7:00 3.2° C wolkenlos
Mo, 24.01. 1:00 0.9° C wolkenlos
So, 23.01. 19:00 1.1° C wolkenlos
So, 23.01. 13:00 0.1° C wolkenlos
Ortszeit Temperatur Wetter
Di, 25.01. 8:00 5.6° C wolkenlos
Di, 25.01. 7:30 5.5° C wolkenlos
Di, 25.01. 7:00 5.2° C wolkenlos
Di, 25.01. 6:30 5.4° C wolkenlos
Di, 25.01. 6:00 5.4° C wolkenlos
Di, 25.01. 5:30 5.6° C wolkenlos
Di, 25.01. 5:00 5.5° C wolkenlos
Ortszeit Relative Feuchte Sichtweite
Di, 25.01. 7:00 43% 65 km
Di, 25.01. 1:00 29% 65 km
Mo, 24.01. 19:00 14% >70 km
Mo, 24.01. 13:00 45% 65 km
Mo, 24.01. 7:00 56% >70 km
Mo, 24.01. 1:00 53% 45 km
So, 23.01. 19:00 36% >70 km
So, 23.01. 13:00 60% >70 km
Ortszeit Relative Feuchte Sichtweite
Di, 25.01. 8:00 36% >70 km
Di, 25.01. 7:30 39% >70 km
Di, 25.01. 7:00 43% 65 km
Di, 25.01. 6:30 41% >70 km
Di, 25.01. 6:00 40% >70 km
Di, 25.01. 5:30 39% >70 km
Di, 25.01. 5:00 40% >70 km
Ortszeit Niederschlagsmenge Niederschlagsart
Di, 25.01. 7:00 0.0 l/m2 in 12 Std. -
Di, 25.01. 1:00 0.0 l/m2 in 6 Std. -
Mo, 24.01. 19:00 0.0 l/m2 in 12 Std. -
Mo, 24.01. 13:00 0.0 l/m2 in 6 Std. -
Mo, 24.01. 7:00 0.1 l/m2 in 12 Std. -
Mo, 24.01. 1:00 0.1 l/m2 in 6 Std. Sprühregen, Niederschlag
So, 23.01. 19:00 0.1 l/m2 in 12 Std. -
So, 23.01. 13:00 0.1 l/m2 in 6 Std. Schnee
Ortszeit Niederschlagsmenge Niederschlagsart
Di, 25.01. 8:00 0.0 l/m2 in 1 Std. -
Di, 25.01. 7:30 0.0 l/m2 in 1 Std. -
Di, 25.01. 7:00 0.0 l/m2 in 1 Std. -
Di, 25.01. 6:30 0.0 l/m2 in 1 Std. -
Di, 25.01. 6:00 0.0 l/m2 in 1 Std. -
Di, 25.01. 5:30 0.0 l/m2 in 1 Std. -
Di, 25.01. 5:00 0.0 l/m2 in 1 Std. -
Ortszeit Stärke Spitze Richtung
km/h Bft. km/h Grad Sektor
Di, 25.01. 7:00 7 2 14 40° NO
Di, 25.01. 1:00 17 3 35 120° SO
Mo, 24.01. 19:00 35 5 43 120° SO
Mo, 24.01. 13:00 36 5 40 100° O
Mo, 24.01. 7:00 35 5 74 110° O
Mo, 24.01. 1:00 63 8 67 100° O
So, 23.01. 19:00 24 4 24 80° O
So, 23.01. 13:00 14 3 47 110° O
Ortszeit Stärke Spitze Richtung
km/h Bft. km/h Grad Sektor
Di, 25.01. 8:00 4 1 7 70° O
Di, 25.01. 7:30 7 2 9 40° NO
Di, 25.01. 7:00 7 2 11 40° NO
Di, 25.01. 6:30 7 2 11 40° NO
Di, 25.01. 6:00 4 1 7 40° NO
Di, 25.01. 5:30 4 1 7 30° NO
Di, 25.01. 5:00 6 1 6 20° N
Ortszeit Untergrenze Bedeckung Gattung
total tief tief mittel hoch
Di, 25.01. 7:00 - 0/8 0/8 - - -
Di, 25.01. 1:00 - 0/8 0/8 - - -
Mo, 24.01. 19:00 - 0/8 0/8 - - -
Mo, 24.01. 13:00 - 0/8 0/8 - - -
Mo, 24.01. 7:00 - 0/8 0/8 - - -
Mo, 24.01. 1:00 - 0/8 0/8 - - -
So, 23.01. 19:00 - 0/8 0/8 - - -
So, 23.01. 13:00 - 0/8 0/8 - - -
Ortszeit Bedeckungsgrad in Achtel und Wolkenuntergrenze
Di, 25.01. 8:00 keine Wolken
Di, 25.01. 7:30 keine Wolken
Di, 25.01. 7:00 keine Wolken
Di, 25.01. 6:30 keine Wolken
Di, 25.01. 6:00 keine Wolken
Di, 25.01. 5:30 keine Wolken
Di, 25.01. 5:00 keine Wolken
Ortszeit Stationsdruck (hPa) Tendenz (hPa in 3 Std.)
Di, 25.01. 7:00 860 - 0,3
Di, 25.01. 1:00 860 + 0,1
Mo, 24.01. 19:00 860 + 0,8
Mo, 24.01. 13:00 859 - 0,1
Mo, 24.01. 7:00 858 + 0,6
Mo, 24.01. 1:00 858 - 0,4
So, 23.01. 19:00 859 - 0,1
So, 23.01. 13:00 859 - 0,1
Ortszeit Stationsdruck (hPa) Tendenz (hPa in 3 Std.)
Di, 25.01. 8:00 860 - 0,1
Di, 25.01. 7:30 860 - 0,1
Di, 25.01. 7:00 860 - 0,3
Di, 25.01. 6:30 860 - 0,4
Di, 25.01. 6:00 860 - 0,4
Di, 25.01. 5:30 860 - 0,2
Di, 25.01. 5:00 860 - 0,2
Ortszeit Schneehöhe (cm)
Di, 25.01. 7:00 65
Di, 25.01. 1:00 65
Mo, 24.01. 19:00 65
Mo, 24.01. 13:00 66
Mo, 24.01. 7:00 66
Mo, 24.01. 1:00 67
So, 23.01. 19:00 67
So, 23.01. 13:00 67
Ortszeit Schneehöhe (cm)
Di, 25.01. 8:00 65
Di, 25.01. 7:30 65
Di, 25.01. 7:00 65
Di, 25.01. 6:30 65
Di, 25.01. 6:00 65
Di, 25.01. 5:30 65
Di, 25.01. 5:00 65
Link zu dieser Seite / Seite empfehlen

Das Wetter in ...